Location: Unspecified
(50.1700°N, 6.8600°E)
Time: 05:29:38
(UTC+00:00)

Okean-O - Pass Details

Date: 24 January 2019
Orbit: 639 x 640 km, 98.2° (Epoch: 23 October)

Event Time Altitude Azimuth Distance (km) Brightness Sun altitude
Rises 06:37:22 0° 7° (N) 2,961 5.9 -6.6°
Reaches altitude 10° 06:39:44 10° 358° (N) 2,046 5.0 -6.3°
Maximum altitude 06:43:43 33° 295° (WNW) 1,088 3.3 -5.7°
Drops below altitude 10° 06:47:39 10° 232° (SW) 2,032 4.9 -5.1°
Sets 06:50:01 0° 222° (SW) 2,937 5.8 -4.8°
